Regional Weather Roundup
Issued by NWS

Home | Current Version | Previous Version | Text Only | Print | Product List | Glossary Off
Versions: 1 2 3 4 5 6 7 8 9 10 11 12 13 14 15 16 17 18 19 20 21 22 23 24 25 26 27 28 29 30 31 32 33 34 35 36 37 38 39 40 41 42 43 44 45 46 47 48 49 50

000
ASUS43 KOAX 270710
RWRNE

WEATHER ROUNDUP FOR NEBRASKA
NATIONAL WEATHER SERVICE OMAHA NE
200 AM CDT WED MAY 27 2015

NOTES: SATELLITE DATA IS BEING USED TO AUGMENT CLOUD COVER ABOVE
       12000 FEET.
       "FAIR" INDICATES FEW OR NO CLOUDS BELOW 12,000 FEET WITH NO
       SIGNIFICANT WEATHER AND/OR OBSTRUCTIONS TO VISIBILITY.

  * THESE STATIONS DO NOT REPORT WEATHER SUCH AS RAIN...SNOW OR FOG.

NEZ001>004-019>022-054>056-270800-
NEBRASKA PANHANDLE

CITY           SKY/WX    TMP DP  RH WIND       PRES   REMARKS
SCOTTSBLUFF    CLOUDY    57  53  86 N5        30.05R
ALLIANCE       CLOUDY    52  49  89 SE7       30.03S
CHADRON        CLOUDY    59  51  75 S9        30.00R
KIMBALL          N/A    N/A N/A N/A MISG        N/A
SIDNEY         CLOUDY    52  49  89 S8        30.06F
$$

NEZ057>060-069>072-079>082-270800-
SOUTHWEST NEBRASKA

CITY           SKY/WX    TMP DP  RH WIND       PRES   REMARKS
NORTH PLATTE   MOCLDY    51  48  89 CALM      30.05S
IMPERIAL       CLEAR     52  47  83 S5        30.07R
LEXINGTON      PTCLDY    50  48  93 NE3       30.04S
MCCOOK         CLEAR     54  47  77 CALM      30.05R
OGALLALA       MOCLDY    55  49  79 CALM      30.06R
$$

NEZ005>010-023>029-035>040-094-270800-
NORTH CENTRAL NEBRASKA

CITY           SKY/WX    TMP DP  RH WIND       PRES   REMARKS
VALENTINE      CLEAR     50  46  86 W6        30.01S
AINSWORTH      CLEAR     55  48  78 W5        30.01S
BROKEN BOW     PTCLDY    53  47  79 CALM      30.02R
O`NEILL        CLEAR     56  51  84 W3        29.98S
ORD            CLEAR     53  47  79 NW6       29.99R
THEDFORD       MOCLDY    54  47  78 SW7       30.04S
$$

NEZ041-046>049-061>064-073>077-083>087-270800-
SOUTH CENTRAL NEBRASKA

CITY           SKY/WX    TMP DP  RH WIND       PRES   REMARKS
GRAND ISLAND   CLEAR     53  47  79 W8        30.01R
AURORA         CLEAR     53  49  89 W8        30.00R
HASTINGS       CLEAR     55  48  77 SW5       30.02R
HEBRON         CLEAR     53  49  87 CALM      30.00S
HOLDREGE       CLEAR     54  47  78 CALM      30.04S
KEARNEY *      CLEAR     54  46  76 CALM      30.03R
YORK           CLEAR     54  50  87 W7        29.99S
$$

NEZ011>018-030>034-042>045-270800-
NORTHEAST NEBRASKA

CITY           SKY/WX    TMP DP  RH WIND       PRES   REMARKS
NORFOLK        CLEAR     54  51  90 W6        29.95S
ALBION         CLEAR     56  48  74 NW3       29.98S
BLAIR          CLEAR     55  52  88 SW3       29.94S
COLUMBUS *       N/A    N/A N/A N/A MISG        N/A
FREMONT        CLEAR     55  53  93 CALM      29.96S
TEKAMAH        CLEAR     55  53  93 SW7       29.93S
WAYNE          CLEAR     51  49  93 SW3       29.95S
$$

NEZ050>053-065>068-078-088>093-270800-
SOUTHEAST NEBRASKA

CITY           SKY/WX    TMP DP  RH WIND       PRES   REMARKS
LINCOLN        CLEAR     59  51  75 NW3       29.97S
OMAHA EPPLEY   CLEAR     55  54  96 S3        29.94S
BEATRICE       CLEAR     53  51  91 CALM      29.98S
FALLS CITY     CLEAR     58  54  86 W6        29.95R
NEBRASKA CITY  CLEAR     57  54  91 W8        29.96R
PLATTSMOUTH    CLEAR     57  52  82 W6        29.95S
$$

NEZ044-045-051>053-067-270800-
OMAHA AREA

CITY           SKY/WX    TMP DP  RH WIND       PRES   REMARKS
OMAHA EPPLEY   CLEAR     55  54  96 S3        29.94S
BLAIR          CLEAR     55  52  88 SW3       29.94S
FREMONT        CLEAR     55  53  93 CALM      29.96S
MILLARD        CLEAR     55  54  95 CALM      29.94F FOG
OFFUTT AFB     CLEAR     54  52  94 W5        29.94R
PLATTSMOUTH    CLEAR     57  52  82 W6        29.95S
WAHOO          FAIR      58  53  82 W3        29.95S
$$



USA.gov is the U.S. government's official web portal to all federal, state and local government web resources and services.